IRIDIUM 33 DEB, 33850

Orbit data source: Space-Track

IRIDIUM 33 DEB, 33850 is space debris in LEO originally from a launch on Sun, 14 Sep 1997 UTC launched from the Tyuratam Missile And Space Complex (TTMTR). The debris from Iridium 33, an American commercial communications satellite, has been tracked extensively since its accidental collision with the defunct Russian satellite Cosmos 2251 in 2009. This event, occurring at high speed in low Earth orbit (LEO), generated thousands of pieces of space debris, significantly increasing the risk of further collisions. The Iridium 33 debris cloud has impacted space traffic management and orbital debris mitigation strategies, making it a subject of ongoing study in space situational awareness.

Loading next visibility...
Identifier
33850, 1997-051T
Orbit
LEO
Country
Flag of USUS
Related business
Manufacturer
Unknown
Mission
Spacecraft
Bus & Motor
Unknown
Mass
Unknown
Launch date (UTC)
1997-09-14 (29 years ago)
Launch vehicle
Unknown
Launch site
Tyuratam Missile And Space Complex (TTMTR)
Object type
Payload
Rocket body
Debris
Shape & HBR
Unknown shape, 0.5 m
Radar Cross Section
Medium (>0.1 m² and <1 m²)

Expand to show TLE details & history
Last TLE update: 15 hours ago

TLE from 15 hours ago
0 IRIDIUM 33 DEB
1 33850U 97051T   26267.28978101  .00000819  00000-0  23953-3 0  9993
2 33850  86.3350 267.3129 0009824 313.9670 106.3266 14.42848280922691
Epoch: 2026-09-24T06:57Z
TLE epoch observation values (Epoch: 2026-09-24T06:57:17.079Z)
Latitude
60.29031°
Longitude
166.27379°
Altitude
761.434 km
Speed
7.478 km/s
True Right ascension
18h 14m 53s
True Declination
60° 08' 32"
Sunlit
Object was in daylight at epoch
Visualization orbit readout
Latitude
Unknown
Longitude
Unknown
Altitude
Unknown
Speed
Unknown
Apparent Right ascension
Unknown
Apparent Declination
Unknown
Sunlit
N/A
Visualization observer readout
Local Sidereal Time
15:03:22
Azimuth
Unknown
Elevation
Unknown
Doppler factor
Unknown
Orbital elements
Apogee altitude
753.056 km
Perigee altitude
739.058 km
Semi-major axis
7,124.194 km
Eccentricity
0.00098
Inclination
86.335°
RAAN
267.3129°
Arg. of periapsis
313.967°
True anomaly
106.4346°
Mean anomaly
106.3266°
Eccentric anomaly
106.3806°
Mean motion
3.60944 °/min
Orbital period
99.74 mins
BSTAR
0.00023953

Documentation

Showing up to 5 results
|